EJU57QA LPPT-LPMA

Flight info

Callsign EJU57QA
Flight time 1h 50m
Altitude 37000
Route ULVOT DCT GALPA DCT RAKUN
Aircraft A320/M-SDE3FGHIRWY/LB1

Departure

Time 2026-05-04 09:18
Airport Lisbon Humberto Delgado Airport (LPPT)

Arrival

Time 2026-05-04 11:08
Airport Cristiano Ronaldo International Airport (LPMA)
Time Latitude Longitude Altitude Speed Heading
2026-05-04 08:48 38.77207 -9.13138 334 ft 0 kts 78°
2026-05-04 09:01 38.77163 -9.13215 338 ft 0 kts 346°
2026-05-04 09:04 38.77166 -9.13216 338 ft 3 kts 347°
2026-05-04 09:04 38.77233 -9.13233 337 ft 13 kts 348°
2026-05-04 09:04 38.77305 -9.13255 338 ft 10 kts 340°
2026-05-04 09:04 38.77326 -9.13321 338 ft 7 kts 258°
2026-05-04 09:05 38.77317 -9.13374 349 ft 7 kts 258°
2026-05-04 09:05 38.77310 -9.13419 343 ft 6 kts 258°
2026-05-04 09:05 38.77297 -9.13493 346 ft 7 kts 258°
2026-05-04 09:05 38.77290 -9.13538 352 ft 5 kts 258°
2026-05-04 09:06 38.77282 -9.13585 349 ft 8 kts 258°
2026-05-04 09:07 38.77264 -9.13694 351 ft 0 kts 258°
2026-05-04 09:08 38.77255 -9.13749 355 ft 8 kts 258°
2026-05-04 09:08 38.77246 -9.13807 357 ft 7 kts 258°
2026-05-04 09:08 38.77220 -9.13851 358 ft 11 kts 212°
2026-05-04 09:08 38.77138 -9.13896 357 ft 13 kts 202°
2026-05-04 09:09 38.77058 -9.13938 356 ft 12 kts 202°
2026-05-04 09:09 38.76977 -9.13981 352 ft 13 kts 202°
2026-05-04 09:09 38.76888 -9.14029 348 ft 14 kts 203°
2026-05-04 09:09 38.76795 -9.14079 349 ft 15 kts 202°
2026-05-04 09:10 38.76704 -9.14128 344 ft 13 kts 202°
2026-05-04 09:10 38.76631 -9.14166 337 ft 9 kts 202°
2026-05-04 09:10 38.76588 -9.14212 336 ft 8 kts 263°
2026-05-04 09:10 38.76602 -9.14261 336 ft 4 kts 292°
2026-05-04 09:11 38.76606 -9.14274 337 ft 0 kts 293°
2026-05-04 09:11 38.76608 -9.14280 335 ft 0 kts 293°
2026-05-04 09:15 38.76609 -9.14282 335 ft 2 kts 293°
2026-05-04 09:15 38.76624 -9.14328 335 ft 7 kts 293°
2026-05-04 09:17 38.78779 -9.13260 722 ft 154 kts 22°
2026-05-04 09:18 38.79790 -9.12723 1300 ft 161 kts 19°
2026-05-04 09:18 38.80846 -9.12176 1945 ft 166 kts 18°
2026-05-04 09:18 38.81909 -9.11517 2549 ft 173 kts 29°
2026-05-04 09:18 38.82962 -9.10688 3143 ft 181 kts 28°
2026-05-04 09:19 38.84113 -9.09819 3505 ft 205 kts 27°
2026-05-04 09:19 38.85435 -9.08858 3743 ft 234 kts 28°
2026-05-04 09:19 38.86916 -9.07733 4101 ft 258 kts 28°
2026-05-04 09:19 38.88417 -9.06467 5001 ft 264 kts 39°
2026-05-04 09:20 38.89400 -9.04445 5763 ft 276 kts 75°
2026-05-04 09:20 38.89338 -9.01979 6591 ft 284 kts 108°
2026-05-04 09:20 38.88380 -8.99743 7422 ft 289 kts 128°
2026-05-04 09:20 38.86856 -8.98151 8176 ft 292 kts 158°
2026-05-04 09:21 38.84902 -8.97443 9001 ft 293 kts 173°
2026-05-04 09:21 38.82869 -8.97230 9822 ft 294 kts 185°
2026-05-04 09:21 38.80858 -8.97686 10533 ft 296 kts 202°
2026-05-04 09:21 38.78850 -8.98616 10785 ft 318 kts 204°
2026-05-04 09:22 38.76748 -8.99700 11236 ft 330 kts 206°
2026-05-04 09:22 38.74616 -9.00848 11941 ft 335 kts 206°
2026-05-04 09:22 38.72464 -9.02024 12682 ft 338 kts 207°
2026-05-04 09:22 38.70288 -9.03212 13437 ft 342 kts 207°
2026-05-04 09:23 38.68086 -9.04406 14131 ft 345 kts 207°
2026-05-04 09:23 38.65861 -9.05606 14789 ft 349 kts 207°
2026-05-04 09:23 38.63612 -9.06813 15435 ft 352 kts 207°
2026-05-04 09:23 38.61372 -9.08012 16065 ft 355 kts 207°
2026-05-04 09:25 38.44851 -9.16798 20150 ft 377 kts 207°
2026-05-04 09:25 38.42457 -9.18172 20709 ft 376 kts 214°
2026-05-04 09:26 38.40294 -9.19994 21260 ft 372 kts 223°
2026-05-04 09:26 38.38230 -9.22020 21801 ft 375 kts 223°
2026-05-04 09:26 38.36152 -9.24055 22360 ft 377 kts 223°
2026-05-04 09:26 38.34063 -9.26099 22913 ft 380 kts 223°
2026-05-04 09:27 38.31957 -9.28154 23455 ft 382 kts 223°
2026-05-04 09:27 38.29839 -9.30214 23935 ft 384 kts 223°
2026-05-04 09:27 38.27710 -9.32281 24364 ft 385 kts 223°
2026-05-04 09:27 38.25581 -9.34347 24855 ft 385 kts 223°
2026-05-04 09:28 38.23444 -9.36418 25298 ft 386 kts 223°
2026-05-04 09:28 38.21303 -9.38495 25723 ft 388 kts 223°
2026-05-04 09:28 38.19181 -9.40556 26115 ft 389 kts 223°
2026-05-04 09:28 38.17025 -9.42647 26518 ft 391 kts 223°
2026-05-04 09:29 38.14851 -9.44750 26906 ft 393 kts 223°
2026-05-04 09:29 38.12671 -9.46853 27271 ft 395 kts 223°
2026-05-04 09:29 38.10476 -9.48972 27611 ft 397 kts 223°
2026-05-04 09:29 38.08272 -9.51103 27970 ft 399 kts 223°
2026-05-04 09:30 38.06057 -9.53243 28332 ft 401 kts 223°
2026-05-04 09:30 38.03830 -9.55391 28688 ft 403 kts 223°
2026-05-04 09:30 38.01592 -9.57545 29040 ft 405 kts 223°
2026-05-04 09:30 37.99350 -9.59712 29379 ft 406 kts 224°
2026-05-04 09:31 37.97149 -9.61956 29709 ft 406 kts 225°
2026-05-04 09:31 37.94981 -9.64271 30036 ft 407 kts 226°
2026-05-04 09:31 37.92833 -9.66616 30330 ft 408 kts 226°
2026-05-04 09:31 37.90683 -9.68971 30597 ft 410 kts 226°
2026-05-04 09:32 37.88513 -9.71328 30860 ft 411 kts 226°
2026-05-04 09:32 37.86328 -9.73681 31111 ft 413 kts 226°
2026-05-04 09:34 37.70943 -9.89980 33193 ft 410 kts 225°
2026-05-04 09:34 37.68757 -9.92290 33524 ft 409 kts 225°
2026-05-04 09:34 37.66577 -9.94593 33858 ft 408 kts 225°
2026-05-04 09:34 37.64399 -9.96892 34188 ft 407 kts 225°
2026-05-04 09:35 37.62310 -9.99275 34467 ft 402 kts 232°
2026-05-04 09:35 37.60526 -10.01960 34714 ft 398 kts 236°
2026-05-04 09:35 37.58800 -10.04692 34946 ft 398 kts 236°
2026-05-04 09:35 37.57074 -10.07423 35174 ft 398 kts 236°
2026-05-04 09:37 37.44989 -10.26384 36606 ft 397 kts 236°
2026-05-04 09:37 37.43261 -10.29088 36799 ft 397 kts 236°
2026-05-04 09:38 37.41534 -10.31793 36980 ft 396 kts 236°
2026-05-04 09:38 37.39808 -10.34495 37132 ft 396 kts 236°
2026-05-04 09:38 37.36360 -10.39873 37160 ft 394 kts 236°
2026-05-04 09:39 37.32920 -10.45226 37164 ft 393 kts 236°
2026-05-04 09:39 37.29484 -10.50572 37164 ft 393 kts 236°
2026-05-04 09:40 37.26042 -10.55921 37164 ft 393 kts 236°
2026-05-04 09:40 37.23177 -10.60353 37128 ft 393 kts 236°
2026-05-04 09:42 37.09379 -10.81644 37176 ft 393 kts 236°
2026-05-04 09:43 37.05949 -10.86923 37181 ft 393 kts 236°
2026-05-04 09:43 37.02497 -10.92224 37183 ft 393 kts 236°
2026-05-04 09:44 36.99040 -10.97524 37174 ft 393 kts 236°
2026-05-04 09:46 36.85215 -11.18638 37183 ft 391 kts 236°
2026-05-04 09:46 36.81764 -11.23887 37184 ft 391 kts 236°
2026-05-04 09:47 36.78307 -11.29134 37182 ft 391 kts 236°
2026-05-04 09:49 36.64487 -11.50038 37177 ft 391 kts 235°
2026-05-04 09:51 36.52388 -11.68249 37181 ft 389 kts 235°
2026-05-04 09:51 36.49771 -11.72164 37185 ft 389 kts 235°
2026-05-04 09:55 36.46637 -11.76849 37181 ft 390 kts 235°
2026-05-04 09:55 36.34732 -11.94613 37192 ft 386 kts 236°
2026-05-04 09:56 36.29046 -12.03078 37188 ft 385 kts 235°
2026-05-04 09:56 36.25586 -12.08209 37193 ft 385 kts 236°
2026-05-04 09:57 36.22169 -12.13265 37191 ft 385 kts 236°
2026-05-04 09:57 36.14058 -12.25250 37187 ft 385 kts 235°
2026-05-04 09:58 36.10103 -12.31077 37163 ft 385 kts 235°
2026-05-04 09:58 36.06661 -12.36134 37189 ft 384 kts 235°
2026-05-04 10:00 35.92906 -12.56295 37196 ft 384 kts 235°
2026-05-04 10:04 35.68757 -12.91384 37190 ft 384 kts 235°
2026-05-04 10:04 35.65302 -12.96387 37199 ft 384 kts 235°
2026-05-04 10:05 35.61841 -13.01397 37197 ft 384 kts 235°
2026-05-04 10:05 35.58395 -13.06358 37202 ft 384 kts 235°
2026-05-04 10:06 35.54917 -13.11345 37206 ft 385 kts 235°
2026-05-04 10:06 35.51438 -13.16345 37164 ft 385 kts 234°
2026-05-04 10:08 35.39232 -13.33837 37201 ft 386 kts 234°
2026-05-04 10:08 35.35735 -13.38829 37205 ft 386 kts 234°
2026-05-04 10:09 35.32239 -13.43817 37209 ft 386 kts 234°
2026-05-04 10:09 35.28739 -13.48800 37211 ft 386 kts 234°
2026-05-04 10:10 35.25258 -13.53748 37201 ft 386 kts 234°
2026-05-04 10:10 35.21756 -13.58711 37207 ft 386 kts 234°
2026-05-04 10:11 35.18250 -13.63670 37208 ft 385 kts 234°
2026-05-04 10:11 35.14749 -13.68631 37198 ft 385 kts 234°
2026-05-04 10:12 35.11242 -13.73585 37196 ft 385 kts 234°
2026-05-04 10:12 35.07740 -13.78534 37194 ft 385 kts 234°
2026-05-04 10:13 35.04235 -13.83478 37195 ft 385 kts 234°
2026-05-04 10:13 35.00722 -13.88419 37188 ft 386 kts 233°
2026-05-04 10:14 34.97219 -13.93329 37188 ft 386 kts 233°
2026-05-04 10:16 34.83140 -14.13050 37208 ft 384 kts 233°
2026-05-04 10:16 34.79632 -14.17937 37205 ft 383 kts 233°
2026-05-04 10:17 34.76123 -14.22815 37200 ft 383 kts 233°
2026-05-04 10:19 34.62065 -14.42333 37177 ft 385 kts 233°
2026-05-04 10:19 34.58538 -14.47218 37198 ft 384 kts 233°
2026-05-04 10:20 34.55016 -14.52086 37201 ft 384 kts 233°
2026-05-04 10:20 34.51489 -14.56948 37201 ft 383 kts 233°
2026-05-04 10:21 34.47966 -14.61803 37186 ft 384 kts 232°
2026-05-04 10:21 34.44442 -14.66667 37184 ft 384 kts 232°
2026-05-04 10:22 34.39130 -14.73945 37187 ft 385 kts 232°
2026-05-04 10:23 34.35474 -14.78630 37189 ft 386 kts 230°
2026-05-04 10:25 34.20539 -14.97390 36097 ft 390 kts 230°
2026-05-04 10:25 34.18656 -14.99755 35841 ft 390 kts 230°
2026-05-04 10:25 34.16775 -15.02111 35598 ft 389 kts 230°
2026-05-04 10:25 34.14904 -15.04459 35347 ft 387 kts 231°
2026-05-04 10:26 34.13041 -15.06805 35108 ft 386 kts 231°
2026-05-04 10:26 34.11189 -15.09140 34867 ft 385 kts 231°
2026-05-04 10:26 34.09338 -15.11467 34624 ft 384 kts 231°
2026-05-04 10:26 34.07492 -15.13782 34386 ft 382 kts 231°
2026-05-04 10:27 34.05648 -15.16089 34147 ft 381 kts 231°
2026-05-04 10:27 34.03810 -15.18385 33856 ft 380 kts 231°
2026-05-04 10:27 34.01973 -15.20680 33587 ft 379 kts 231°
2026-05-04 10:27 34.00144 -15.22967 33319 ft 378 kts 231°
2026-05-04 10:28 33.98325 -15.25243 33052 ft 376 kts 231°
2026-05-04 10:28 33.96513 -15.27513 32794 ft 375 kts 231°
2026-05-04 10:28 33.94733 -15.29742 32533 ft 373 kts 231°
2026-05-04 10:28 33.92937 -15.31986 32268 ft 371 kts 231°
2026-05-04 10:29 33.91146 -15.34216 32026 ft 370 kts 231°
2026-05-04 10:29 33.89361 -15.36438 31782 ft 368 kts 231°
2026-05-04 10:29 33.87585 -15.38647 31524 ft 366 kts 231°
2026-05-04 10:29 33.85820 -15.40845 31273 ft 365 kts 231°
2026-05-04 10:30 33.84060 -15.43036 31028 ft 363 kts 231°
2026-05-04 10:30 33.82309 -15.45216 30787 ft 362 kts 231°
2026-05-04 10:30 33.80562 -15.47389 30541 ft 360 kts 231°
2026-05-04 10:30 33.78823 -15.49552 30309 ft 359 kts 231°
2026-05-04 10:31 33.77651 -15.51007 30133 ft 358 kts 231°
2026-05-04 10:31 33.75947 -15.53124 29857 ft 357 kts 231°
2026-05-04 10:32 33.65641 -15.65863 28208 ft 352 kts 230°
2026-05-04 10:33 33.63934 -15.67969 27945 ft 352 kts 230°
2026-05-04 10:33 33.62233 -15.70070 27693 ft 351 kts 230°
2026-05-04 10:33 33.60546 -15.72156 27426 ft 345 kts 230°
2026-05-04 10:33 33.58885 -15.74204 27053 ft 340 kts 230°
2026-05-04 10:34 33.57239 -15.76232 26655 ft 337 kts 230°
2026-05-04 10:34 33.55607 -15.78239 26221 ft 335 kts 229°
2026-05-04 10:34 33.53970 -15.80214 25791 ft 333 kts 229°
2026-05-04 10:34 33.52322 -15.82151 25351 ft 332 kts 228°
2026-05-04 10:35 33.50665 -15.84075 24914 ft 330 kts 228°
2026-05-04 10:35 33.49017 -15.85987 24462 ft 329 kts 228°
2026-05-04 10:35 33.47378 -15.87899 24012 ft 329 kts 228°
2026-05-04 10:35 33.45741 -15.89813 23531 ft 329 kts 228°
2026-05-04 10:36 33.44116 -15.91714 23047 ft 327 kts 228°
2026-05-04 10:36 33.42495 -15.93611 22604 ft 324 kts 227°
2026-05-04 10:36 33.40886 -15.95493 22181 ft 322 kts 227°
2026-05-04 10:36 33.39285 -15.97363 21748 ft 321 kts 227°
2026-05-04 10:37 33.37690 -15.99224 21326 ft 319 kts 227°
2026-05-04 10:37 33.36104 -16.01077 20905 ft 318 kts 227°
2026-05-04 10:37 33.34521 -16.02923 20487 ft 318 kts 227°
2026-05-04 10:37 33.32938 -16.04772 20069 ft 319 kts 227°
2026-05-04 10:39 33.23373 -16.15901 17522 ft 318 kts 227°
2026-05-04 10:39 33.21783 -16.17745 17117 ft 319 kts 227°
2026-05-04 10:39 33.20191 -16.19590 16712 ft 319 kts 227°
2026-05-04 10:40 33.18620 -16.21409 16316 ft 318 kts 226°
2026-05-04 10:40 33.17035 -16.23244 15924 ft 317 kts 226°
2026-05-04 10:40 33.15464 -16.25066 15533 ft 316 kts 226°
2026-05-04 10:40 33.13890 -16.26893 15141 ft 315 kts 226°
2026-05-04 10:41 33.12317 -16.28719 14739 ft 315 kts 226°
2026-05-04 10:41 33.10751 -16.30536 14361 ft 314 kts 226°
2026-05-04 10:41 33.09185 -16.32346 13974 ft 314 kts 226°
2026-05-04 10:41 33.07616 -16.34156 13554 ft 313 kts 226°
2026-05-04 10:42 33.06052 -16.35958 13152 ft 312 kts 226°
2026-05-04 10:42 33.04502 -16.37745 12785 ft 310 kts 226°
2026-05-04 10:42 33.02954 -16.39527 12388 ft 308 kts 225°
2026-05-04 10:42 33.01414 -16.41302 11993 ft 307 kts 225°
2026-05-04 10:43 32.99885 -16.43066 11594 ft 306 kts 225°
2026-05-04 10:44 32.89481 -16.54842 8757 ft 281 kts 223°
2026-05-04 10:45 32.88052 -16.56352 8587 ft 266 kts 223°
2026-05-04 10:45 32.86702 -16.57778 8229 ft 260 kts 223°
2026-05-04 10:45 32.85379 -16.59178 8107 ft 256 kts 223°
2026-05-04 10:45 32.84056 -16.60577 7935 ft 257 kts 223°
2026-05-04 10:46 32.82719 -16.61992 7505 ft 258 kts 220°
2026-05-04 10:46 32.81225 -16.63168 7198 ft 258 kts 208°
2026-05-04 10:46 32.79547 -16.63954 6925 ft 258 kts 199°
2026-05-04 10:46 32.77852 -16.64629 6601 ft 255 kts 200°
2026-05-04 10:47 32.76194 -16.65303 6001 ft 252 kts 200°
2026-05-04 10:47 32.74541 -16.65977 5376 ft 251 kts 200°
2026-05-04 10:47 32.72906 -16.66645 4780 ft 249 kts 200°
2026-05-04 10:47 32.71276 -16.67311 4212 ft 245 kts 200°
2026-05-04 10:49 32.62466 -16.71399 2939 ft 155 kts 223°
2026-05-04 10:49 32.61757 -16.72364 2559 ft 153 kts 235°
2026-05-04 10:50 32.61256 -16.73435 2347 ft 145 kts 246°
2026-05-04 10:51 32.63440 -16.80228 1369 ft 143 kts 346°
2026-05-04 10:52 32.64422 -16.80349 1182 ft 143 kts
2026-05-04 10:52 32.65419 -16.80345 998 ft 143 kts
2026-05-04 10:52 32.66400 -16.80312 806 ft 142 kts 10°
2026-05-04 10:54 32.72191 -16.74167 2303 ft 216 kts 51°
2026-05-04 10:54 32.72881 -16.72547 2820 ft 230 kts 78°
2026-05-04 10:56 32.67707 -16.64070 3007 ft 216 kts 205°
2026-05-04 10:56 32.66583 -16.65212 3017 ft 215 kts 240°
2026-05-04 10:56 32.66025 -16.66859 3017 ft 216 kts 253°
2026-05-04 10:57 32.65886 -16.68615 3004 ft 217 kts 282°
2026-05-04 10:57 32.66602 -16.70170 3008 ft 219 kts 317°
2026-05-04 10:57 32.67847 -16.71211 3016 ft 220 kts 329°
2026-05-04 10:57 32.69171 -16.72084 3012 ft 220 kts 331°
2026-05-04 10:58 32.70523 -16.72943 3009 ft 220 kts 332°
2026-05-04 10:58 32.71984 -16.73427 3001 ft 220 kts
2026-05-04 10:58 32.73439 -16.72914 3017 ft 221 kts 28°
2026-05-04 10:58 32.74608 -16.71736 3012 ft 222 kts 51°
2026-05-04 10:59 32.75295 -16.70115 3006 ft 221 kts 80°
2026-05-04 10:59 32.75146 -16.68323 3008 ft 221 kts 116°
2026-05-04 10:59 32.74161 -16.66970 2971 ft 216 kts 150°
2026-05-04 10:59 32.72785 -16.66524 2713 ft 201 kts 184°
2026-05-04 11:00 32.71511 -16.66980 2487 ft 187 kts 211°
2026-05-04 11:01 32.65879 -16.69494 2017 ft 150 kts 200°
2026-05-04 11:02 32.64897 -16.69896 2008 ft 149 kts 200°
2026-05-04 11:02 32.63935 -16.70297 2000 ft 144 kts 202°
2026-05-04 11:05 32.66445 -16.80305 795 ft 141 kts 11°
2026-05-04 11:06 32.67371 -16.79968 612 ft 138 kts 27°
2026-05-04 11:06 32.68166 -16.79352 367 ft 136 kts 45°
2026-05-04 11:06 32.68827 -16.78569 225 ft 137 kts 47°
2026-05-04 11:06 32.69467 -16.77813 173 ft 114 kts 45°
2026-05-04 11:08 32.70324 -16.76822 190 ft 8 kts 224°
2026-05-04 11:10 32.70254 -16.76903 188 ft 6 kts 224°
2026-05-04 11:12 32.69704 -16.77342 170 ft 31 kts 226°
2026-05-04 11:12 32.69554 -16.77527 169 ft 31 kts 226°
2026-05-04 11:12 32.69451 -16.77655 169 ft 7 kts 227°
2026-05-04 11:12 32.69416 -16.77659 169 ft 5 kts 144°
2026-05-04 11:13 32.69401 -16.77644 169 ft 0 kts 140°
2026-05-04 11:13 32.69392 -16.77635 169 ft 0 kts 137°
2026-05-04 11:13 32.69392 -16.77634 169 ft 0 kts 137°